Regional Weather Roundup
Issued by NWS

Home | Current Version | Previous Version | Graphics & Text | Print | Product List | Glossary On
Versions: 1 2 3 4 5 6 7 8 9 10 11 12 13 14 15 16 17 18 19 20 21 22 23 24 25 26 27 28 29 30 31 32 33 34 35 36 37 38 39 40 41 42 43 44 45 46 47 48 49 50
000
ASUS43 KDMX 191506
RWRIA

WEATHER ROUNDUP FOR IOWA
NATIONAL WEATHER SERVICE DES MOINES IA
900 AM CST THU JAN 19 2017

NOTE: "FAIR" INDICATES FEW OR NO CLOUDS BELOW 12,000 FEET WITH NO
SIGNIFICANT WEATHER AND/OR OBSTRUCTIONS TO VISIBILITY.

* - THESE STATIONS ARE NOT NWS STATIONS...THUS NOT UNDER NWS
QUALITY CONTROL.  THEY ALSO DO NOT REPORT WEATHER SUCH
AS PRECIPITATION OR FOG.

IAZ001>003-012>014-020>022-031>034-043>046-191600-
   NORTHWEST IOWA

CITY           SKY/WX    TMP DP  RH WIND       PRES   REMARKS
CARROLL *      CLOUDY    34  32  93 CALM      29.81F FOG
CHEROKEE *     PTSUNNY   32  32 100 S6        29.78S FOG     WCI  26
DENISON *      CLOUDY    37  36  93 S3        29.78S FOG
LE MARS *      MOCLDY    36  34  93 S5        29.76S WCI  32
ORANGE CITY *  PTCLDY    36  34  93 SE6       29.74F WCI  31
SHELDON *      CLEAR     34  34 100 SE8       29.73F FOG     WCI  27
SIOUX CITY     PTCLDY    35  33  92 SE9       29.77R FOG     WCI  28
SPENCER        FOG       32  32 100 SE13      29.77S VSB 1/4 WCI  22
STORM LAKE *   FOG       30  30 100 SE12      29.79R VSB<1/4 WCI  21
$$

IAZ055>058-069>071-079>083-090>094-191600-
   SOUTHWEST IOWA

CITY           SKY/WX    TMP DP  RH WIND       PRES   REMARKS
ATLANTIC *     CLOUDY    34  34 100 CALM      29.80F FOG
AUDUBON *      CLOUDY    36  32  87 CALM      29.81S FOG
CLARINDA *     CLOUDY    37  37 100 CALM      29.82S
COUNCIL BLFS * CLOUDY    36  36 100 SE9       29.79S FOG     WCI  29
CRESTON *      CLOUDY    36  36 100 E8        29.83R FOG     WCI  29
HARLAN  *      CLOUDY    34  34 100 CALM      29.83S FOG
LAMONI         CLOUDY    38  37  97 SE5       29.81F FOG     WCI  34
RED OAK *      CLOUDY    36  36 100 MISG      29.81S
SHENANDOAH *   CLOUDY    36  36 100 CALM      29.81S FOG
$$

IAZ047>049-059>061-072>074-084-191600-
   CENTRAL IOWA

CITY           SKY/WX    TMP DP  RH WIND       PRES   REMARKS
AMES           FOG       31  31 100 E6        29.86R VSB 1/2 WCI  25
ANKENY *       CLOUDY    32  32 100 E6        29.86F FOG     WCI  26
BOONE *        FOG       32  32 100 SE8       29.83R VSB 1/2 WCI  25
CHARITON *     CLOUDY    36  34  93 NE5       29.84R FOG     WCI  32
DES MOINES     CLOUDY    33  32  96 E6        29.86S FOG     WCI  28
GRINNELL*      CLOUDY    31  31  99 E6        29.86F FOG     WCI  26
KNOXVILLE *    CLOUDY    34  32  93 E3        29.85R FOG
MARSHALLTOWN   FOG       31  31 100 SE10      29.86S VSB 1/4 WCI  22
NEWTON *       CLOUDY    32  32 100 E8        29.85F FOG     WCI  25
PELLA *        CLOUDY    33  32  98 SE3       29.89R FOG
PERRY *        CLOUDY    33  33 100 E6        29.84R FOG     WCI  27
$$

IAZ004>006-015-016-023>025-035-036-191600-
   NORTH CENTRAL IOWA

CITY           SKY/WX    TMP DP  RH WIND       PRES   REMARKS
ALGONA *       CLOUDY    34  34 100 S13       29.81S FOG     WCI  25
CLARION *      CLOUDY    32  32 100 SE9       29.84S FOG     WCI  24
ESTHERVILLE    FOG       31  31 100 S15       29.78S VSB 1/4 WCI  20
FORT DODGE *   CLOUDY    34  30  86 SE7       29.84R WCI  28
MASON CITY     FOG       30  30 100 SE12      29.86R VSB<1/4 WCI  20
FOREST CITY *  FOG       32  32 100 SE9       29.84S VSB 1/4 WCI  24
WEBSTER CITY * FOG       32  32 100 SE9       29.82S VSB 1/2 WCI  24
IOWA FALLS *   SNOW      32  31  96 E8        29.86S VSB<1/4 WCI  25
$$

IAZ007>011-017>019-026>030-037>042-050>054-066-191600-
   NORTHEAST IOWA

CITY           SKY/WX    TMP DP  RH WIND       PRES   REMARKS
CEDAR RAPIDS   PTSUNNY   31  31 100 E7        29.88S FOG     WCI  24
CHARLES CITY * FOG       30  30 100 SE9       29.87F VSB<1/4 WCI  22
CLINTON *      CLOUDY    32  31  96 SE7       29.94S FOG     WCI  26
DECORAH *      FOG       30  30 100 SE3       29.89R VSB<1/4
DUBUQUE        FOG       31  30  96 E5        29.91S VSB 1/4 WCI  26
MONTICELLO *   FOG       32  32 100 SE6G12    29.92R VSB 1/2 WCI  26
OELWEIN *      FOG       30  30 100 SE6       29.90S VSB<1/4 WCI  24
WATERLOO       FOG       31  30  96 SE7       29.89S VSB 1/4 WCI  24
$$

IAZ064-065-067-068-078-191600-
   EAST CENTRAL IOWA

CITY           SKY/WX    TMP DP  RH WIND       PRES   REMARKS
DAVENPORT      CLOUDY    32  31  96 E7        29.91F FOG     WCI  26
IOWA CITY      PTSUNNY   33  32  96 NE3       29.91F FOG
MUSCATINE *    CLOUDY    32  30  93 CALM      29.91F FOG
QUAD CITIES    CLOUDY    33  31  92 E7        29.91F FOG     WCI  27
$$

IAZ062-063-075>077-085>089-095>099-191600-
   SOUTHEAST IOWA

CITY           SKY/WX    TMP DP  RH WIND       PRES   REMARKS
BURLINGTON     CLOUDY    36  35  96 E8        29.87F FOG     WCI  30
FAIRFIELD *    CLOUDY    36  34  93 S6        29.86F FOG     WCI  31
FORT MADISON * CLOUDY    37  36  93 E7        29.88F FOG     WCI  32
KEOKUK *       CLOUDY    37  37 100 S5        29.88R FOG     WCI  34
OSKALOOSA *    CLOUDY    33  33  99 SE6       29.86R FOG     WCI  28
OTTUMWA        CLOUDY    36  34  92 SE5       29.85R FOG     WCI  32
WASHINGTON *   CLOUDY    34  34 100 E9        29.88F FOG     WCI  26
$$

ABBREVIATIONS USED IN REMARKS
   TC - TEMPERATURES IN CELSIUS
  WCI - WIND CHILL INDEX
   HX - HEAT INDEX
  VSB - VISIBILITY
$$




USA.gov is the U.S. government's official web portal to all federal, state and local government web resources and services.